When you browse on this site, cookies collect data to enhance your experience and personalize the content and advertising you see.
Visit our Privacy Policy to learn more. By continuing to use the site, you agree to this use of cookies and data.
  • In United Kingdom
  • List of Countries
  • For 7 days
  • Water Temperature
  • Weather Map
  • Weather Widgets
  • user-avatar
    Login

    Hourly Weather Aberfoyle

    Today, 24 February, Monday

    Time Temperature Precipitation Wind Pressure Humidity
    00:00 +2°C° 0 mm 1 mps 738 mmHg 92%
    01:00 +2°C° 0.1 mm 1 mps 737 mmHg 93%
    02:00 +2°C° 0.1 mm 1 mps 736 mmHg 95%
    03:00 +2°C° 0.1 mm 1 mps 735 mmHg 96%
    04:00 +1°C° 0.8 mm 2 mps 733 mmHg 97%
    05:00 0°C° 0.8 mm 3 mps 732 mmHg 97%
    06:00 -1°C° 0.8 mm 4 mps 730 mmHg 97%
    07:00 -2°C° 1.9 mm 5 mps 728 mmHg 97%
    08:00 -3°C° 1.9 mm 6 mps 727 mmHg 97%
    09:00 -3°C° 1.9 mm 6 mps 725 mmHg 98%
    10:00 -3°C° 1.2 mm 6 mps 724 mmHg 97%
    11:00 -2°C° 1.2 mm 5 mps 723 mmHg 97%
    12:00 -2°C° 1.2 mm 5 mps 722 mmHg 97%
    13:00 -2°C° 0.3 mm 4 mps 722 mmHg 98%
    14:00 -1°C° 0.3 mm 3 mps 722 mmHg 98%
    15:00 +1°C° 0.3 mm 2 mps 722 mmHg 98%
    16:00 -1°C° 0.1 mm 2 mps 722 mmHg 98%
    17:00 -1°C° 0.1 mm 2 mps 723 mmHg 98%
    18:00 -1°C° 0.1 mm 2 mps 723 mmHg 98%
    19:00 -1°C° 0 mm 2 mps 723 mmHg 97%
    20:00 -1°C° 0 mm 2 mps 724 mmHg 96%
    21:00 -2°C° 0 mm 2 mps 724 mmHg 95%
    22:00 0°C° 0.2 mm 1 mps 724 mmHg 96%
    23:00 0°C° 0.2 mm 1 mps 724 mmHg 97%

    Tomorrow, 25 February, Tuesday

    Time Temperature Precipitation Wind Pressure Humidity
    00:00 0°C° 0.2 mm 1 mps 724 mmHg 97%
    01:00 0°C° 0.4 mm 1 mps 723 mmHg 98%
    02:00 0°C° 0.4 mm 1 mps 723 mmHg 98%
    03:00 0°C° 0.4 mm 1 mps 722 mmHg 98%
    04:00 0°C° 0.2 mm 1 mps 722 mmHg 97%
    05:00 0°C° 0.2 mm 1 mps 721 mmHg 97%
    06:00 0°C° 0.2 mm 1 mps 721 mmHg 96%
    07:00 0°C° 0.1 mm 1 mps 721 mmHg 96%
    08:00 0°C° 0.1 mm 1 mps 721 mmHg 96%
    09:00 +1°C° 0.1 mm 1 mps 721 mmHg 95%
    10:00 -1°C° 0.1 mm 2 mps 720 mmHg 94%
    11:00 +1°C° 0.1 mm 2 mps 720 mmHg 94%
    12:00 +2°C° 0.1 mm 2 mps 720 mmHg 93%
    13:00 +2°C° 0.3 mm 2 mps 720 mmHg 93%
    14:00 +2°C° 0.3 mm 2 mps 719 mmHg 92%
    15:00 +2°C° 0.3 mm 2 mps 719 mmHg 92%
    16:00 +1°C° 0.1 mm 2 mps 719 mmHg 92%
    17:00 -1°C° 0.1 mm 2 mps 718 mmHg 91%
    18:00 0°C° 0.1 mm 1 mps 718 mmHg 91%
    19:00 0°C° 0 mm 1 mps 718 mmHg 91%
    20:00 0°C° 0 mm 1 mps 718 mmHg 92%
    21:00 -1°C° 0 mm 1 mps 718 mmHg 92%
    22:00 -1°C° 0 mm 1 mps 719 mmHg 92%
    23:00 -1°C° 0 mm 1 mps 719 mmHg 92%

    Day after tomorrow, 26 February, Wednesday

    Time Temperature Precipitation Wind Pressure Humidity
    00:00 -2°C° 0 mm 1 mps 720 mmHg 91%
    01:00 -2°C° 0 mm 1 mps 720 mmHg 91%
    02:00 -4°C° 0 mm 2 mps 721 mmHg 91%
    03:00 -4°C° 0 mm 2 mps 721 mmHg 90%
    04:00 -4°C° 0 mm 2 mps 722 mmHg 90%
    05:00 -4°C° 0 mm 2 mps 723 mmHg 89%
    06:00 -4°C° 0 mm 2 mps 723 mmHg 89%
    07:00 -3°C° 0 mm 2 mps 724 mmHg 89%
    08:00 -2°C° 0 mm 2 mps 725 mmHg 89%
    09:00 -2°C° 0 mm 2 mps 725 mmHg 90%
    10:00 -1°C° 0.1 mm 3 mps 726 mmHg 86%
    11:00 -1°C° 0.1 mm 4 mps 726 mmHg 82%
    12:00 0°C° 0.1 mm 5 mps 727 mmHg 78%
    13:00 0°C° 0.1 mm 5 mps 727 mmHg 80%
    14:00 -1°C° 0.1 mm 5 mps 727 mmHg 82%
    15:00 -1°C° 0.1 mm 5 mps 727 mmHg 84%
    16:00 -1°C° 0.3 mm 4 mps 726 mmHg 88%
    17:00 -1°C° 0.3 mm 3 mps 726 mmHg 92%
    18:00 -2°C° 0.3 mm 2 mps 726 mmHg 96%
    19:00 -2°C° 0.2 mm 2 mps 726 mmHg 96%
    20:00 -2°C° 0.2 mm 2 mps 726 mmHg 96%
    21:00 -2°C° 0.2 mm 2 mps 726 mmHg 96%
    22:00 -3°C° 0 mm 2 mps 726 mmHg 95%
    23:00 -3°C° 0 mm 2 mps 725 mmHg 95%

    27 February, Thursday

    Time Temperature Precipitation Wind Pressure Humidity
    00:00 -3°C° 0 mm 2 mps 725 mmHg 94%
    01:00 -1°C° 0.1 mm 1 mps 725 mmHg 95%
    02:00 -1°C° 0.1 mm 1 mps 724 mmHg 96%
    03:00 -1°C° 0.1 mm 1 mps 724 mmHg 97%
    04:00 -1°C° 0 mm 1 mps 724 mmHg 97%
    05:00 -2°C° 0 mm 1 mps 724 mmHg 96%
    06:00 -2°C° 0 mm 1 mps 723 mmHg 96%
    07:00 -1°C° 0 mm 1 mps 723 mmHg 94%
    08:00 -1°C° 0 mm 1 mps 723 mmHg 93%
    09:00 0°C° 0 mm 1 mps 723 mmHg 91%
    10:00 +1°C° 0 mm 1 mps 723 mmHg 89%
    11:00 +1°C° 0 mm 2 mps 723 mmHg 87%
    12:00 +2°C° 0 mm 2 mps 723 mmHg 84%
    13:00 +2°C° 0.1 mm 2 mps 723 mmHg 84%
    14:00 +2°C° 0.1 mm 2 mps 723 mmHg 84%
    15:00 +2°C° 0.1 mm 2 mps 723 mmHg 84%
    16:00 +1°C° 0 mm 2 mps 723 mmHg 86%
    17:00 +1°C° 0 mm 1 mps 723 mmHg 87%
    18:00 0°C° 0 mm 1 mps 723 mmHg 89%
    19:00 -1°C° 0 mm 1 mps 723 mmHg 89%
    20:00 -1°C° 0 mm 1 mps 723 mmHg 89%
    21:00 -2°C° 0 mm 0 mps 723 mmHg 90%
    22:00 -2°C° 0 mm 0 mps 723 mmHg 90%
    23:00 -2°C° 0 mm 0 mps 723 mmHg 91%

    28 February, Friday

    Time Temperature Precipitation Wind Pressure Humidity
    00:00 -2°C° 0 mm 0 mps 723 mmHg 91%
    01:00 -2°C° 0.2 mm 0 mps 723 mmHg 93%
    02:00 -1°C° 0.2 mm 1 mps 722 mmHg 95%
    03:00 0°C° 0.2 mm 1 mps 722 mmHg 97%
    04:00 0°C° 1.2 mm 1 mps 722 mmHg 97%
    05:00 0°C° 1.2 mm 1 mps 721 mmHg 98%
    06:00 0°C° 1.2 mm 1 mps 721 mmHg 98%
    07:00 0°C° 0.6 mm 1 mps 721 mmHg 98%
    08:00 0°C° 0.6 mm 1 mps 721 mmHg 98%
    09:00 0°C° 0.6 mm 1 mps 721 mmHg 98%
    10:00 +1°C° 0.5 mm 1 mps 721 mmHg 98%
    11:00 +1°C° 0.5 mm 1 mps 721 mmHg 98%
    12:00 +1°C° 0.5 mm 1 mps 721 mmHg 99%
    13:00 +2°C° 0.4 mm 1 mps 721 mmHg 98%
    14:00 +1°C° 0.4 mm 0 mps 721 mmHg 97%
    15:00 +1°C° 0.4 mm 0 mps 720 mmHg 96%
    16:00 0°C° 0 mm 0 mps 720 mmHg 96%
    17:00 -1°C° 0 mm 0 mps 720 mmHg 96%
    18:00 -2°C° 0 mm 0 mps 720 mmHg 97%
    19:00 -1°C° 0 mm 1 mps 720 mmHg 96%
    20:00 -2°C° 0 mm 1 mps 719 mmHg 96%
    21:00 -2°C° 0 mm 1 mps 719 mmHg 96%
    22:00 -2°C° 0 mm 1 mps 719 mmHg 95%
    23:00 -4°C° 0 mm 2 mps 718 mmHg 95%

    29 February, Saturday

    Time Temperature Precipitation Wind Pressure Humidity
    00:00 -4°C° 0 mm 2 mps 718 mmHg 95%
    01:00 -4°C° 0 mm 2 mps 718 mmHg 95%
    02:00 -3°C° 0 mm 2 mps 718 mmHg 95%
    03:00 -3°C° 0 mm 2 mps 718 mmHg 95%
    04:00 -3°C° 0.1 mm 2 mps 718 mmHg 95%
    05:00 -3°C° 0.1 mm 2 mps 719 mmHg 95%
    06:00 -4°C° 0.1 mm 3 mps 719 mmHg 95%
    07:00 -4°C° 0.5 mm 3 mps 720 mmHg 94%
    08:00 -3°C° 0.5 mm 4 mps 721 mmHg 94%
    09:00 -4°C° 0.5 mm 5 mps 722 mmHg 94%
    10:00 -4°C° 0.1 mm 5 mps 722 mmHg 90%
    11:00 -2°C° 0.1 mm 5 mps 723 mmHg 87%
    12:00 -2°C° 0.1 mm 5 mps 724 mmHg 83%
    13:00 -2°C° 0 mm 4 mps 725 mmHg 84%
    14:00 -1°C° 0 mm 3 mps 726 mmHg 84%
    15:00 -1°C° 0 mm 2 mps 726 mmHg 84%
    16:00 -2°C° 0 mm 2 mps 727 mmHg 85%
    17:00 -4°C° 0 mm 2 mps 727 mmHg 85%
    18:00 -5°C° 0 mm 2 mps 728 mmHg 86%
    19:00 -6°C° 0 mm 2 mps 729 mmHg 86%
    20:00 -6°C° 0 mm 1 mps 730 mmHg 86%
    21:00 -6°C° 0 mm 1 mps 730 mmHg 86%
    22:00 -7°C° 0 mm 1 mps 731 mmHg 86%
    23:00 -7°C° 0 mm 1 mps 731 mmHg 86%
    Show more